• In Hungary
  • List of Countries
  • For 7 days
  • Water Temperature
  • Satellite Maps
  • Weather Map
  • News
  • Weather Widgets
  • user-avatar
    Login

    Hourly Weather Zavolzhskiy

    Today, 25 September, Tuesday

    Time Temperature Precipitation Wind Pressure Humidity
    00:00 +7°C° 1.9 mm 5 mps 732 mmHg 94%
    01:00 +7°C° 1.9 mm 5 mps 732 mmHg 94%
    02:00 +7°C° 0 mm 4 mps 732 mmHg 93%
    03:00 +6°C° 1.1 mm 5 mps 732 mmHg 93%
    04:00 +6°C° 1.1 mm 5 mps 733 mmHg 92%
    05:00 +5°C° 1.1 mm 6 mps 733 mmHg 91%
    06:00 +5°C° 0.5 mm 6 mps 734 mmHg 90%
    07:00 +5°C° 0.5 mm 7 mps 735 mmHg 89%
    08:00 +5°C° 0 mm 7 mps 735 mmHg 88%
    09:00 +5°C° 0.4 mm 7 mps 736 mmHg 86%
    10:00 +5°C° 0.4 mm 7 mps 737 mmHg 84%
    11:00 +6°C° 0.4 mm 7 mps 738 mmHg 82%
    12:00 +6°C° 0.4 mm 7 mps 739 mmHg 80%
    13:00 +7°C° 0.4 mm 6 mps 740 mmHg 78%
    14:00 +8°C° 0 mm 6 mps 741 mmHg 73%
    15:00 +8°C° 0 mm 5 mps 742 mmHg 74%
    16:00 +7°C° 0 mm 5 mps 743 mmHg 75%
    17:00 +7°C° 0 mm 5 mps 744 mmHg 75%
    18:00 +6°C° 0 mm 5 mps 744 mmHg 77%
    19:00 +5°C° 0 mm 4 mps 745 mmHg 78%
    20:00 +5°C° 0 mm 4 mps 746 mmHg 80%
    21:00 +4°C° 0 mm 4 mps 747 mmHg 81%
    22:00 +4°C° 0 mm 4 mps 748 mmHg 81%
    23:00 +4°C° 0 mm 4 mps 748 mmHg 82%

    Tomorrow, 26 September, Wednesday

    Time Temperature Precipitation Wind Pressure Humidity
    00:00 +3°C° 0 mm 4 mps 749 mmHg 82%
    01:00 +3°C° 0 mm 4 mps 749 mmHg 81%
    02:00 +1°C° 0 mm 4 mps 750 mmHg 81%
    03:00 +1°C° 0 mm 4 mps 750 mmHg 81%
    04:00 +2°C° 0 mm 3 mps 751 mmHg 81%
    05:00 +1°C° 0 mm 3 mps 751 mmHg 82%
    06:00 +2°C° 0 mm 3 mps 752 mmHg 80%
    07:00 +3°C° 0 mm 3 mps 752 mmHg 79%
    08:00 +4°C° 0 mm 4 mps 752 mmHg 77%
    09:00 +5°C° 0 mm 4 mps 752 mmHg 74%
    10:00 +7°C° 0 mm 4 mps 752 mmHg 71%
    11:00 +8°C° 0 mm 4 mps 752 mmHg 68%
    12:00 +10°C° 0 mm 4 mps 752 mmHg 65%
    13:00 +10°C° 0 mm 5 mps 751 mmHg 61%
    14:00 +10°C° 0 mm 5 mps 751 mmHg 58%
    15:00 +10°C° 0 mm 5 mps 750 mmHg 61%
    16:00 +9°C° 0 mm 5 mps 749 mmHg 64%
    17:00 +8°C° 0 mm 5 mps 748 mmHg 66%
    18:00 +8°C° 0.2 mm 5 mps 747 mmHg 69%
    19:00 +7°C° 0.2 mm 6 mps 746 mmHg 72%
    20:00 +6°C° 0.2 mm 7 mps 745 mmHg 75%
    21:00 +6°C° 1.3 mm 7 mps 744 mmHg 78%
    22:00 +5°C° 1.3 mm 8 mps 742 mmHg 82%
    23:00 +5°C° 1.3 mm 8 mps 741 mmHg 85%

    Day after tomorrow, 27 September, Thursday

    Time Temperature Precipitation Wind Pressure Humidity
    00:00 +5°C° 1.4 mm 8 mps 740 mmHg 86%
    01:00 +5°C° 1.4 mm 8 mps 739 mmHg 86%
    02:00 +5°C° 1.4 mm 8 mps 737 mmHg 87%
    03:00 +6°C° 1 mm 7 mps 737 mmHg 87%
    04:00 +6°C° 1 mm 7 mps 737 mmHg 88%
    05:00 +7°C° 1 mm 6 mps 736 mmHg 88%
    06:00 +7°C° 0.5 mm 6 mps 736 mmHg 85%
    07:00 +8°C° 0.5 mm 6 mps 737 mmHg 83%
    08:00 +8°C° 0.5 mm 5 mps 737 mmHg 80%
    09:00 +8°C° 0.1 mm 6 mps 737 mmHg 75%
    10:00 +9°C° 0.1 mm 7 mps 737 mmHg 70%
    11:00 +9°C° 0.1 mm 7 mps 738 mmHg 66%
    12:00 +9°C° 0.4 mm 7 mps 738 mmHg 67%
    13:00 +8°C° 0.4 mm 7 mps 738 mmHg 69%
    14:00 +8°C° 0.4 mm 7 mps 739 mmHg 71%
    15:00 +8°C° 0.1 mm 6 mps 739 mmHg 72%
    16:00 +7°C° 0.1 mm 5 mps 739 mmHg 73%
    17:00 +7°C° 0.1 mm 4 mps 740 mmHg 74%
    18:00 +6°C° 0 mm 4 mps 740 mmHg 75%
    19:00 +6°C° 0 mm 4 mps 740 mmHg 76%
    20:00 +5°C° 0 mm 4 mps 741 mmHg 78%
    21:00 +5°C° 0 mm 4 mps 741 mmHg 78%
    22:00 +5°C° 0 mm 4 mps 741 mmHg 78%
    23:00 +5°C° 0 mm 4 mps 741 mmHg 78%

    28 September, Friday

    Time Temperature Precipitation Wind Pressure Humidity
    00:00 +5°C° 0 mm 4 mps 741 mmHg 78%
    01:00 +5°C° 0 mm 4 mps 740 mmHg 78%
    02:00 +5°C° 0 mm 4 mps 740 mmHg 78%
    03:00 +5°C° 1.5 mm 3 mps 739 mmHg 83%
    04:00 +5°C° 1.5 mm 3 mps 737 mmHg 88%
    05:00 +5°C° 1.5 mm 3 mps 736 mmHg 93%
    06:00 +6°C° 2.7 mm 4 mps 735 mmHg 93%
    07:00 +7°C° 2.7 mm 4 mps 734 mmHg 93%
    08:00 +10°C° 2.7 mm 4 mps 733 mmHg 93%
    09:00 +9°C° 1.1 mm 5 mps 734 mmHg 91%
    10:00 +9°C° 1.1 mm 5 mps 734 mmHg 88%
    11:00 +9°C° 1.1 mm 6 mps 734 mmHg 85%
    12:00 +8°C° 0.1 mm 5 mps 736 mmHg 83%
    13:00 +7°C° 0.1 mm 5 mps 737 mmHg 81%
    14:00 +7°C° 0.1 mm 5 mps 738 mmHg 79%
    15:00 +6°C° 0 mm 4 mps 739 mmHg 78%
    16:00 +6°C° 0 mm 4 mps 740 mmHg 78%
    17:00 +5°C° 0 mm 3 mps 741 mmHg 78%
    18:00 +4°C° 0 mm 3 mps 742 mmHg 80%
    19:00 +4°C° 0 mm 3 mps 743 mmHg 82%
    20:00 +3°C° 0 mm 3 mps 743 mmHg 84%
    21:00 +3°C° 0 mm 3 mps 744 mmHg 86%
    22:00 +2°C° 0 mm 3 mps 745 mmHg 88%
    23:00 +2°C° 0 mm 3 mps 745 mmHg 90%

    29 September, Saturday

    Time Temperature Precipitation Wind Pressure Humidity
    00:00 +3°C° 0 mm 2 mps 746 mmHg 90%
    01:00 +3°C° 0 mm 2 mps 746 mmHg 90%
    02:00 +2°C° 0 mm 2 mps 747 mmHg 91%
    03:00 +2°C° 0 mm 2 mps 747 mmHg 91%
    04:00 +2°C° 0 mm 2 mps 748 mmHg 91%
    05:00 +1°C° 0 mm 2 mps 748 mmHg 91%
    06:00 +1°C° 0 mm 3 mps 749 mmHg 85%
    07:00 +2°C° 0 mm 3 mps 750 mmHg 79%
    08:00 +3°C° 0 mm 3 mps 750 mmHg 74%
    09:00 +4°C° 0 mm 3 mps 751 mmHg 67%
    10:00 +5°C° 0 mm 4 mps 751 mmHg 61%
    11:00 +6°C° 0 mm 4 mps 752 mmHg 54%
    12:00 +6°C° 0 mm 4 mps 752 mmHg 53%
    13:00 +6°C° 0 mm 4 mps 752 mmHg 52%
    14:00 +6°C° 0 mm 4 mps 753 mmHg 51%
    15:00 +5°C° 0 mm 3 mps 753 mmHg 56%
    16:00 +4°C° 0 mm 3 mps 753 mmHg 60%
    17:00 +4°C° 0 mm 2 mps 754 mmHg 65%
    18:00 +3°C° 0 mm 2 mps 754 mmHg 68%
    19:00 +2°C° 0 mm 2 mps 755 mmHg 71%
    20:00 +1°C° 0 mm 2 mps 755 mmHg 74%
    21:00 +1°C° 0 mm 2 mps 755 mmHg 75%
    22:00 +1°C° 0 mm 2 mps 756 mmHg 77%
    23:00 -1°C° 0 mm 2 mps 756 mmHg 78%

    30 September, Sunday

    Time Temperature Precipitation Wind Pressure Humidity
    00:00 -1°C° 0 mm 2 mps 756 mmHg 79%
    01:00 -1°C° 0 mm 2 mps 756 mmHg 79%
    02:00 -1°C° 0 mm 2 mps 756 mmHg 79%
    03:00 0°C° 0 mm 3 mps 756 mmHg 79%
    04:00 0°C° 0 mm 3 mps 756 mmHg 79%
    05:00 0°C° 0 mm 3 mps 756 mmHg 80%
    06:00 +1°C° 0 mm 3 mps 756 mmHg 76%
    07:00 +1°C° 0 mm 4 mps 756 mmHg 72%
    08:00 +3°C° 0 mm 4 mps 756 mmHg 68%
    09:00 +5°C° 0 mm 5 mps 756 mmHg 63%
    10:00 +6°C° 0 mm 5 mps 756 mmHg 58%
    11:00 +8°C° 0 mm 6 mps 755 mmHg 54%
    12:00 +8°C° 0 mm 6 mps 755 mmHg 53%
    13:00 +8°C° 0 mm 5 mps 754 mmHg 52%
    14:00 +9°C° 0 mm 5 mps 754 mmHg 51%
    15:00 +8°C° 0 mm 5 mps 754 mmHg 54%
    16:00 +7°C° 0 mm 4 mps 753 mmHg 58%
    17:00 +6°C° 0 mm 4 mps 753 mmHg 62%
    18:00 +5°C° 0 mm 4 mps 753 mmHg 63%
    19:00 +5°C° 0 mm 4 mps 753 mmHg 64%
    20:00 +4°C° 0 mm 4 mps 753 mmHg 64%
    21:00 +4°C° 0 mm 4 mps 753 mmHg 65%
    22:00 +4°C° 0 mm 4 mps 753 mmHg 66%
    23:00 +4°C° 0 mm 4 mps 752 mmHg 67%
    Show more